This demonstration page uses our WeatherBlox Daily Observations layout. Learn more.

Left ArrowRight Arrow

Hourly Observations for October 6, 2016

Temp ( °F °C ) Dew Point ( °F °C ) Humidity (%) Winds ( mph kmh ) Pressure ( in mb ) Visibility ( mi km ) Precip ( " mm )
12:54 am 00:54 Clear 52 11.1 49 9.4 89 89 N 5 7 29.94 1014 10 16.0934 0 0
1:54 am 01:54 Clear 52 11.1 49 9.4 89 89 N 5 7 29.93 1014 10 16.0934 0 0
2:54 am 02:54 Clear 52 11.1 49 9.4 89 89 N 5 7 29.92 1013 10 16.0934 0 0
3:54 am 03:54 Clear 50 10 48 8.9 93 93 Calm 29.93 1013 10 16.0934 0 0
4:54 am 04:54 Clear 49 9.4 47 8.3 93 93 N 6 9 29.92 1013 10 16.0934 0 0
5:54 am 05:54 Clear 52 11.1 49 9.4 89 89 NNE 3 6 29.91 1013 10 16.0934 0 0
6:54 am 06:54 Clear 54 12.2 51 10.6 90 90 NW 6 9 29.91 1013 10 16.0934 0 0
7:54 am 07:54 Sunny 53 11.7 50 10 89 89 N 9 15 29.93 1014 10 16.0934 0 0
8:19 am 08:19 Mostly Cloudy 53 11.7 51 10.6 93 93 N 9 15 29.94 1014 10 16.0934 0 0
8:54 am 08:54 Cloudy 55 12.8 53 11.7 93 93 N 9 15 29.94 1014 10 16.0934 0 0
9:54 am 09:54 Cloudy 56 13.3 53 11.7 90 90 N 12 19 29.94 1014 10 16.0934 0 0
10:54 am 10:54 Cloudy 57 13.9 53 11.7 87 87 NNE 14 22 29.92 1013 10 16.0934 0 0
11:30 am 11:30 Cloudy with Light Thunderstorms 57 14 54 12 88 88 N 9 15 29.94 1014 10 16.0934 0 0
11:47 am 11:47 Cloudy with Heavy Thunderstorms 55 12.8 53 11.7 93 93 NE 17 28 29.91 1013 1 1.60934 0.17 4.318
11:54 am 11:54 Cloudy with Nearby Thunderstorms 55 12.8 54 12.2 96 96 NNE 10 17 29.92 1013 1.75 2.816345 0.23 5.842
12:05 pm 12:05 Cloudy with Nearby Thunderstorms 55 13 54 12 94 94 NNE 14 22 29.91 1013 4 6.43736 0 0
12:25 pm 12:25 Cloudy with Thunderstorms 56 13.3 54 12.2 93 93 NW 13 20 29.94 1014 3 4.82802 0.06 1.524
12:29 pm 12:29 Cloudy with Heavy Thunderstorms 55 12.8 54 12.2 96 96 NNW 12 19 29.94 1014 1.75 2.816345 0.09 2.286
12:32 pm 12:32 Cloudy with Heavy Thunderstorms 55 13 54 12 94 94 N 14 22 29.94 1014 3 4.82802 0 0
12:40 pm 12:40 Cloudy with Nearby Thunderstorms 55 13 54 12 94 94 NNE 12 19 29.91 1013 3 4.82802 0 0
12:44 pm 12:44 Cloudy with Nearby Thunderstorms 55 13 54 12 94 94 NE 15 24 29.91 1013 3 4.82802 0 0
12:54 pm 12:54 Cloudy with Thunderstorms 56 13.3 54 12.2 93 93 NE 16 26 29.9 1013 3 4.82802 0.14 3.556
1:01 pm 13:01 Cloudy with Thunderstorms 56 13.3 55 12.8 97 97 NNE 13 20 29.88 1012 4 6.43736 0.09 2.286
1:08 pm 13:08 Cloudy with Light Thunderstorms 56 13.3 55 12.8 97 97 NNE 10 17 29.91 1013 4 6.43736 0.09 2.286
1:16 pm 13:16 Cloudy with Nearby Thunderstorms 57 14 55 13 94 94 ENE 13 20 29.88 1012 10 16.0934 0 0
1:30 pm 13:30 Cloudy with Nearby Thunderstorms 57 14 55 13 94 94 ENE 15 24 29.88 1012 9 14.48406 0 0
1:44 pm 13:44 Cloudy 58 14.4 56 13.3 93 93 ENE 16 26 29.88 1012 9 14.48406 0.09 2.286
1:54 pm 13:54 Cloudy 58 14.4 56 13.3 93 93 E 20 31 29.86 1011 8 12.87472 0.09 2.286
2:20 pm 14:20 Cloudy with Mist and Fog 58 14.4 57 13.9 97 97 NE 8 13 29.85 1011 5 8.0467 0 0
2:23 pm 14:23 Cloudy with Mist and Fog 58 14.4 57 13.9 97 97 NE 10 17 29.85 1011 5 8.0467 0 0
2:54 pm 14:54 Cloudy with Light Rain 57 13.9 56 13.3 96 96 N 13 20 29.85 1011 2.5 4.02335 0.01 0.254
3:09 pm 15:09 Cloudy with Light Rain 55 12.8 54 12.2 96 96 N 13 20 29.85 1011 3 4.82802 0.01 0.254
3:54 pm 15:54 Cloudy 54 12.2 53 11.7 97 97 N 10 17 29.85 1011 10 16.0934 0.01 0.254
4:54 pm 16:54 Cloudy 54 12.2 52 11.1 93 93 NW 18 30 29.88 1012 10 16.0934 0 0.0254
5:11 pm 17:11 Cloudy 53 11.7 49 9.4 86 86 NNW 25 41 29.88 1012 10 16.0934 0 0
5:31 pm 17:31 Cloudy with Light Rain 51 10.6 48 8.9 89 89 NNW 28 44 29.88 1012 10 16.0934 0 0.0254
5:42 pm 17:42 Cloudy with Nearby Thunderstorms 50 10 46 7.8 86 86 NNW 30 48 29.88 1012 2.5 4.02335 0.04 1.016
5:44 pm 17:44 Cloudy with Heavy Thunderstorms 48 9 46 8 94 94 NNW 26 43 29.88 1012 1.5 2.41401 0 0
5:54 pm 17:54 Cloudy with Thunderstorms 49 9.4 46 7.8 90 90 NNW 23 37 29.9 1013 1.5 2.41401 0.17 4.318
5:59 pm 17:59 Windy with Storms Likely 48 8.9 46 7.8 93 93 NNW 25 41 29.94 1014 3 4.82802 0.01 0.254
6:06 pm 18:06 Cloudy with Nearby Thunderstorms 48 9 45 7 87 87 NNW 23 37 29.94 1014 9 14.48406 0 0
6:16 pm 18:16 Cloudy with Light Rain 48 8.9 45 7.2 89 89 NNW 23 37 29.94 1014 10 16.0934 0.01 0.254
6:54 pm 18:54 Cloudy with Light Rain 47 8.3 44 6.7 90 90 WNW 16 26 29.98 1015 10 16.0934 0.01 0.254
7:03 pm 19:03 Cloudy with Heavy Rain 46 8 45 7 93 93 NNW 21 33 30 1016 1.75 2.816345 0 0
7:10 pm 19:10 Cloudy with Light Rain 46 8 43 6 87 87 NNW 28 44 30 1016 2 3.21868 0 0
7:13 pm 19:13 Cloudy with Light Rain 47 8.3 43 6.1 86 86 NNW 25 41 30 1016 6 9.65604 0.06 1.524
7:54 pm 19:54 Cloudy 46 7.8 42 5.6 86 86 NNW 24 39 30.03 1017 10 16.0934 0.07 1.778
8:54 pm 20:54 Cloudy 45 7.2 42 5.6 90 90 NNW 18 30 30.06 1018 10 16.0934 0 0
9:54 pm 21:54 Cloudy 44 6.7 40 4.4 85 85 NNW 21 33 30.12 1020 10 16.0934 0 0
10:54 pm 22:54 Cloudy 43 6.1 39 3.9 86 86 NNW 21 33 30.16 1022 10 16.0934 0 0
11:32 pm 23:32 Cloudy 43 6 37 3 81 81 NNW 17 28 30.18 1022 10 16.0934 0 0
11:54 pm 23:54 Cloudy 43 6.1 38 3.3 82 82 N 15 24 30.16 1021 10 16.0934 0 0

Powered by AerisWeather